SB KEPS @ AMSAT $ORB11252.O Orbital Elements 11252.OSCAR
HR AMSAT ORBITAL ELEMENTS FOR OSCAR SATELLITES FROM WA5QGD FORT WORTH,TX September 9, 2011 Send Subscribe/unsubscribe to KEPS at http://www.amsat.org/mailman/listinfo/keps BID: ORB11252.O TO ALL RADIO AMATEURS BT
Satellite: AO-07 Catalog number: 07530 Epoch time: 11251.55335910 Element set: 174 Inclination: 101.3957 deg RA of node: 254.8129 deg Eccentricity: 0.0012064 Arg of perigee: 115.2438 deg Mean anomaly: 244.9882 deg Mean motion: 12.53583826 rev/day Decay rate: -2.7e-07 rev/day^2 Epoch rev: 68463 Checksum: 297
Satellite: FO-29 Catalog number: 24278 Epoch time: 11251.76886106 Element set: 659 Inclination: 098.5598 deg RA of node: 024.6750 deg Eccentricity: 0.0351229 Arg of perigee: 040.7518 deg Mean anomaly: 321.9337 deg Mean motion: 13.52964883 rev/day Decay rate: 7.8e-07 rev/day^2 Epoch rev: 74376 Checksum: 351
Satellite: SO-33 Catalog number: 25509 Epoch time: 11250.77129200 Element set: 0050 Inclination: 031.4329 deg RA of node: 137.2128 deg Eccentricity: 0.0354236 Arg of perigee: 243.9057 deg Mean anomaly: 112.4735 deg Mean motion: 14.28442211 rev/day Decay rate: 2.77e-06 rev/day^2 Epoch rev: 67209 Checksum: 270
Satellite: RS-22 Catalog number: 27939 Epoch time: 11251.62827149 Element set: 611 Inclination: 097.8365 deg RA of node: 101.6015 deg Eccentricity: 0.0014777 Arg of perigee: 081.2939 deg Mean anomaly: 278.9935 deg Mean motion: 14.63636542 rev/day Decay rate: 3.26e-06 rev/day^2 Epoch rev: 42454 Checksum: 324
Satellite: VO-52 Catalog number: 28650 Epoch time: 11251.60751623 Element set: 893 Inclination: 097.6349 deg RA of node: 290.9768 deg Eccentricity: 0.0025666 Arg of perigee: 247.5008 deg Mean anomaly: 112.3522 deg Mean motion: 14.82163984 rev/day Decay rate: 6.06e-06 rev/day^2 Epoch rev: 34310 Checksum: 313
Satellite: SO-67 Catalog number: 35870 Epoch time: 11251.65396156 Element set: 201 Inclination: 097.2738 deg RA of node: 292.2105 deg Eccentricity: 0.0003993 Arg of perigee: 088.5012 deg Mean anomaly: 067.8259 deg Mean motion: 15.21056409 rev/day Decay rate: 2.524e-05 rev/day^2 Epoch rev: 10962 Checksum: 305
Satellite: HO-68 Catalog number: 36122 Epoch time: 11251.61928555 Element set: 721 Inclination: 100.4065 deg RA of node: 311.1369 deg Eccentricity: 0.0007619 Arg of perigee: 036.9496 deg Mean anomaly: 323.2143 deg Mean motion: 13.16287984 rev/day Decay rate: -4.4e-07 rev/day^2 Epoch rev: 8321 Checksum: 290
/EX SB KEPS @ AMSAT $ORB11252.D Orbital Elements 11252.MICROS
HR AMSAT ORBITAL ELEMENTS FOR THE MICROSATS FROM WA5QGD FORT WORTH,TX September 9, 2011 Send Subscribe/unsubscribe to KEPS at http://www.amsat.org/mailman/listinfo/keps BID: ORB11252.D TO ALL RADIO AMATEURS BT
Satellite: UO-11 Catalog number: 14781 Epoch time: 11251.77053639 Element set: 648 Inclination: 097.9968 deg RA of node: 308.1809 deg Eccentricity: 0.0008087 Arg of perigee: 224.6302 deg Mean anomaly: 135.4259 deg Mean motion: 14.80025891 rev/day Decay rate: 9.2e-07 rev/day^2 Epoch rev: 47815 Checksum: 324
Satellite: AO-16 Catalog number: 20439 Epoch time: 11251.80327895 Element set: 275 Inclination: 098.3914 deg RA of node: 198.6550 deg Eccentricity: 0.0010048 Arg of perigee: 278.2664 deg Mean anomaly: 081.7386 deg Mean motion: 14.31937706 rev/day Decay rate: 9.7e-07 rev/day^2 Epoch rev: 12958 Checksum: 333
Satellite: LO-19 Catalog number: 20442 Epoch time: 11250.96144628 Element set: 0193 Inclination: 098.3553 deg RA of node: 201.8775 deg Eccentricity: 0.0010931 Arg of perigee: 272.5781 deg Mean anomaly: 087.4151 deg Mean motion: 14.32161823 rev/day Decay rate: 9.5e-07 rev/day^2 Epoch rev: 12964 Checksum: 297
Satellite: AO-27 Catalog number: 22825 Epoch time: 11250.96220973 Element set: 0909 Inclination: 098.5373 deg RA of node: 193.7317 deg Eccentricity: 0.0009082 Arg of perigee: 036.7440 deg Mean anomaly: 323.4358 deg Mean motion: 14.29361658 rev/day Decay rate: 8.8e-07 rev/day^2 Epoch rev: 93601 Checksum: 321
Satellite: IO-26 Catalog number: 22826 Epoch time: 11250.87645680 Element set: 0657 Inclination: 098.5304 deg RA of node: 194.0963 deg Eccentricity: 0.0009704 Arg of perigee: 031.3602 deg Mean anomaly: 328.8157 deg Mean motion: 14.29625377 rev/day Decay rate: 6.6e-07 rev/day^2 Epoch rev: 93612 Checksum: 319
Satellite: GO-32 Catalog number: 25397 Epoch time: 11250.94074832 Element set: 0576 Inclination: 098.3340 deg RA of node: 239.1051 deg Eccentricity: 0.0001998 Arg of perigee: 055.0899 deg Mean anomaly: 305.0486 deg Mean motion: 14.23218013 rev/day Decay rate: 1.09e-06 rev/day^2 Epoch rev: 68373 Checksum: 304
Satellite: NO-44 Catalog number: 26931 Epoch time: 11250.94022479 Element set: 0844 Inclination: 067.0525 deg RA of node: 130.2949 deg Eccentricity: 0.0005347 Arg of perigee: 256.3941 deg Mean anomaly: 103.6534 deg Mean motion: 14.29677825 rev/day Decay rate: 2.6e-07 rev/day^2 Epoch rev: 51875 Checksum: 311
Satellite: SO-50 Catalog number: 27607 Epoch time: 11250.89463260 Element set: 559 Inclination: 064.5580 deg RA of node: 076.3348 deg Eccentricity: 0.0079139 Arg of perigee: 303.8158 deg Mean anomaly: 055.5400 deg Mean motion: 14.71804386 rev/day Decay rate: 1.77e-06 rev/day^2 Epoch rev: 46826 Checksum: 321
Satellite: CO-55 Catalog number: 27844 Epoch time: 11250.56967136 Element set: 193 Inclination: 098.7085 deg RA of node: 258.0817 deg Eccentricity: 0.0009482 Arg of perigee: 326.9673 deg Mean anomaly: 033.0925 deg Mean motion: 14.20839331 rev/day Decay rate: 9.1e-07 rev/day^2 Epoch rev: 42461 Checksum: 321
Satellite: CO-57 Catalog number: 27848 Epoch time: 11250.52595016 Element set: 142 Inclination: 098.7147 deg RA of node: 257.2549 deg Eccentricity: 0.0009332 Arg of perigee: 331.8414 deg Mean anomaly: 028.2247 deg Mean motion: 14.20615757 rev/day Decay rate: 8.6e-07 rev/day^2 Epoch rev: 42455 Checksum: 309
Satellite: AO-51 Catalog number: 28375 Epoch time: 11250.61501232 Element set: 0066 Inclination: 098.1068 deg RA of node: 224.7645 deg Eccentricity: 0.0083096 Arg of perigee: 179.6979 deg Mean anomaly: 180.4282 deg Mean motion: 14.40777002 rev/day Decay rate: 4.8e-07 rev/day^2 Epoch rev: 37793 Checksum: 317
Satellite: CP3 Catalog number: 31129 Epoch time: 11251.63957685 Element set: 963 Inclination: 097.8981 deg RA of node: 271.0218 deg Eccentricity: 0.0100578 Arg of perigee: 281.9685 deg Mean anomaly: 077.0219 deg Mean motion: 14.52554193 rev/day Decay rate: 3.14e-06 rev/day^2 Epoch rev: 23295 Checksum: 322
Satellite: CO-65 Catalog number: 32785 Epoch time: 11250.71642922 Element set: 0091 Inclination: 097.8409 deg RA of node: 312.9997 deg Eccentricity: 0.0013723 Arg of perigee: 267.2223 deg Mean anomaly: 092.7409 deg Mean motion: 14.82100638 rev/day Decay rate: 2.81e-06 rev/day^2 Epoch rev: 18176 Checksum: 313
Satellite: PRISM Catalog number: 33493 Epoch time: 11251.68995966 Element set: 942 Inclination: 098.1347 deg RA of node: 021.5758 deg Eccentricity: 0.0020643 Arg of perigee: 128.9467 deg Mean anomaly: 231.3602 deg Mean motion: 14.81899457 rev/day Decay rate: 1.607e-05 rev/day^2 Epoch rev: 14188 Checksum: 334
Satellite: SOHLA-1 Catalog number: 33496 Epoch time: 11250.90941452 Element set: 510 Inclination: 098.0854 deg RA of node: 359.9307 deg Eccentricity: 0.0005826 Arg of perigee: 214.8469 deg Mean anomaly: 145.2355 deg Mean motion: 14.69653125 rev/day Decay rate: 2.26e-06 rev/day^2 Epoch rev: 14063 Checksum: 301
Satellite: TISAT-1 Catalog number: 36799 Epoch time: 11251.73269348 Element set: 215 Inclination: 098.0945 deg RA of node: 320.7866 deg Eccentricity: 0.0015511 Arg of perigee: 012.6034 deg Mean anomaly: 347.5561 deg Mean motion: 14.80695809 rev/day Decay rate: 9.00e-06 rev/day^2 Epoch rev: 6267 Checksum: 312
Satellite: STUDSAT Catalog number: 36801 Epoch time: 11250.78495967 Element set: 0263 Inclination: 098.0980 deg RA of node: 319.7539 deg Eccentricity: 0.0013630 Arg of perigee: 003.9658 deg Mean anomaly: 356.1660 deg Mean motion: 14.80961117 rev/day Decay rate: 2.243e-05 rev/day^2 Epoch rev: 06252 Checksum: 307
Satellite: OOREOS Catalog number: 37224 Epoch time: 11153.29456974 Element set: 0179 Inclination: 071.9726 deg RA of node: 071.8135 deg Eccentricity: 0.0020315 Arg of perigee: 307.7637 deg Mean anomaly: 052.1684 deg Mean motion: 14.77036357 rev/day Decay rate: 4.92e-06 rev/day^2 Epoch rev: 02867 Checksum: 309
Satellite: FO-69 Catalog number: 37227 Epoch time: 11236.21052771 Element set: 0115 Inclination: 071.9679 deg RA of node: 249.2733 deg Eccentricity: 0.0016566 Arg of perigee: 160.7113 deg Mean anomaly: 199.4694 deg Mean motion: 14.76627258 rev/day Decay rate: 1.32e-06 rev/day^2 Epoch rev: 01936 Checksum: 318
Satellite: NANOSALD Catalog number: 37361 Epoch time: 11242.25215765 Element set: 0351 Inclination: 071.9735 deg RA of node: 221.4469 deg Eccentricity: 0.0025730 Arg of perigee: 245.3422 deg Mean anomaly: 114.7284 deg Mean motion: 15.22200108 rev/day Decay rate: 1.80112e-03 rev/day^2 Epoch rev: 03331 Checksum: 248
Satellite: FO-70 Catalog number: 37380 Epoch time: 11236.23500000 Element set: 0252 Inclination: 071.9713 deg RA of node: 249.4107 deg Eccentricity: 0.0017170 Arg of perigee: 157.2901 deg Mean anomaly: 202.9024 deg Mean motion: 14.76392013 rev/day Decay rate: 8.6e-07 rev/day^2 Epoch rev: 04090 Checksum: 249
/EX SB KEPS @ AMSAT $ORB11252.W Orbital Elements 11252.WEATHER
HR AMSAT ORBITAL ELEMENTS FOR WEATHER SATELLITES FROM WA5QGD FORT WORTH,TX September 9, 2011 Send Subscribe/unsubscribe to KEPS at http://www.amsat.org/mailman/listinfo/keps BID: ORB11252.W TO ALL RADIO AMATEURS BT
Satellite: NOAA-10 Catalog number: 16969 Epoch time: 11250.92061644 Element set: 0640 Inclination: 098.6163 deg RA of node: 279.5633 deg Eccentricity: 0.0012239 Arg of perigee: 347.9457 deg Mean anomaly: 012.1430 deg Mean motion: 14.27474909 rev/day Decay rate: -3.0e-07 rev/day^2 Epoch rev: 29945 Checksum: 309
